Weather History for Sioux Falls, SD

Change the Weather History Date:

Monday, February 3, 2014

  Actual Average Record
Temperature  
Mean Temperature 9 °F 18 °F  
Max Temperature 20 °F 28 °F 58 °F (2005)
Min Temperature -2 °F 8 °F -35 °F (1917)
Degree Days  
Heating Degree Days 56 47  
Month to date heating degree days 166 141  
Since 1 July heating degree days 5030 4773  
Cooling Degree Days 0 0  
Month to date cooling degree days 0 0  
Year to date cooling degree days 0 0  
Moisture  
Dew Point 4 °F    
Average Humidity 79    
Maximum Humidity 95    
Minimum Humidity 62    
Precipitation  
Precipitation T in 0.02 in 0.66 in (1997)
Month to date precipitation T 0.06  
Year to date precipitation 0.31 0.62  
Snow  
Snow T in 0.30 in 8.40 in (1997)
Month to date snowfall T 0.8  
Since 1 July snowfall 25.2 25.4  
Snow Depth 1.00 in    
Sea Level Pressure  
Sea Level Pressure 30.29 in    
Wind  
Wind Speed 6 mph (NE)    
Max Wind Speed 13 mph    
Max Gust Speed -    
Visibility 10 miles    
Events Snow    
T = Trace of Precipitation, MM = Missing Value Source: NWS Daily Summary

Daily Weather History Graph

Daily Weather History Graph

Search for Another Location

Airport:

Trip Planner

Search our weather history database for the weather conditions in past years. The results will help you decide how hot, cold, wet, or windy it might be!

Date:

Astronomy

Feb. 03, 2014 Rise Set
Actual Time 7:41 AM CST 5:41 PM CST
Civil Twilight 7:10 AM CST 6:11 PM CST
Nautical Twilight 6:36 AM CST 6:45 PM CST
Astronomical Twilight 6:03 AM CST 7:19 PM CST
Moon 9:34 AM CST (2/3) 10:43 PM CST (2/3)
Length of Visible Light 11h 00m
Length of Day
10h 00m
Waxing Crescent, 20% of the Moon is Illuminated
Feb 3
Waxing Crescent
Feb 6
First Quarter
Feb 14
Full
Feb 22
Last Quarter
Mar 1
New

Hourly Weather History & Observations

Time (CST) Temp. Windchill Dew Point Humidity Pressure Visibility Wind Dir Wind Speed Gust Speed Precip Events Conditions
12:56 AM 5.0 °F - 1.0 °F 84% 30.20 in 10.0 mi Calm Calm - N/A   Clear
1:56 AM 1.9 °F - -0.9 °F 88% 30.20 in 10.0 mi Calm Calm - N/A   Clear
2:56 AM 1.0 °F - -2.0 °F 87% 30.22 in 10.0 mi Calm Calm - N/A   Clear
3:56 AM 1.9 °F - -0.0 °F 91% 30.22 in 10.0 mi Calm Calm - N/A   Clear
4:56 AM 1.0 °F - -2.9 °F 83% 30.23 in 10.0 mi Calm Calm - N/A   Clear
5:56 AM -0.9 °F -8.9 °F -2.9 °F 91% 30.24 in 10.0 mi NNE 3.5 mph - N/A   Clear
6:56 AM -0.0 °F - -4.0 °F 83% 30.25 in 10.0 mi Calm Calm - N/A   Clear
7:56 AM 1.9 °F -5.6 °F -0.9 °F 88% 30.28 in 10.0 mi NW 3.5 mph - N/A   Mostly Cloudy
8:56 AM 5.0 °F -2.1 °F 1.9 °F 87% 30.27 in 10.0 mi NNE 3.5 mph - N/A   Overcast
9:56 AM 8.1 °F -0.5 °F 3.9 °F 83% 30.30 in 10.0 mi North 4.6 mph - N/A   Overcast
10:56 AM 12.0 °F 1.5 °F 5.0 °F 73% 30.30 in 10.0 mi NE 6.9 mph - N/A   Mostly Cloudy
11:56 AM 16.0 °F 3.6 °F 7.0 °F 68% 30.29 in 10.0 mi NE 10.4 mph - N/A   Mostly Cloudy
12:02 PM 17.1 °F 6.6 °F 7.0 °F 65% 30.20 in 10.0 mi NNE 8.1 mph - N/A   Mostly Cloudy
12:56 PM 17.1 °F 7.6 °F 8.1 °F 68% 30.29 in 10.0 mi ENE 6.9 mph - N/A   Mostly Cloudy
1:56 PM 19.0 °F 7.5 °F 9.0 °F 65% 30.27 in 10.0 mi NE 10.4 mph - N/A   Mostly Cloudy
2:56 PM 19.9 °F 8.6 °F 9.0 °F 62% 30.26 in 10.0 mi NE 10.4 mph - N/A   Mostly Cloudy
3:56 PM 19.0 °F 7.5 °F 9.0 °F 65% 30.28 in 10.0 mi East 10.4 mph - N/A   Mostly Cloudy
4:56 PM 18.0 °F 6.9 °F 9.0 °F 68% 30.29 in 10.0 mi East 9.2 mph - N/A   Mostly Cloudy
5:56 PM 16.0 °F 3.6 °F 9.0 °F 74% 30.31 in 10.0 mi East 10.4 mph - N/A   Mostly Cloudy
6:56 PM 15.1 °F 3.3 °F 9.0 °F 77% 30.32 in 10.0 mi East 9.2 mph - N/A   Overcast
7:56 PM 12.9 °F -0.9 °F 7.0 °F 77% 30.34 in 10.0 mi ENE 11.5 mph - N/A   Overcast
8:56 PM 12.0 °F -0.4 °F 5.0 °F 73% 30.35 in 9.0 mi NE 9.2 mph - 0.00 in Snow Light Snow
9:56 PM 10.0 °F -5.2 °F 3.9 °F 76% 30.37 in 9.0 mi ENE 12.7 mph - 0.00 in Snow Light Snow
10:28 PM 10.0 °F -3.7 °F 3.9 °F 76% 30.28 in 8.0 mi NE 10.4 mph - 0.00 in Snow Light Snow
10:56 PM 10.0 °F -3.7 °F 3.9 °F 76% 30.38 in 6.0 mi NE 10.4 mph - 0.00 in Snow Light Snow
11:56 PM 10.9 °F -2.6 °F 3.9 °F 73% 30.39 in 9.0 mi NE 10.4 mph - 0.00 in Snow Light Snow